AISTechSat 3
1 44103U 19018AB 21063.80669154 .00001506 00000-0 65424-4 0 9999
2 44103 97.3732 127.1362 0012965 0.2254 93.6266 15.23765238107072
AISat 1
1 44104U 19018AC 21063.17680385 .00001933 00000-0 62611-4 0 9998
2 44104 97.4346 140.1409 0057444 11.6804 348.5755 15.31732684107556
Raavana-1
1 44329U 98067QE 21063.50097702 .00041621 00000-0 37087-3 0 9996
2 44329 51.6354 102.9421 0003573 277.5828 82.4763 15.68021318 97645
Uguisu
1 44330U 98067QF 21063.47296317 .00040996 00000-0 36923-3 0 9999
2 44330 51.6335 103.4381 0003559 276.6562 83.4029 15.67765150 97617
NepaliSat-1
1 44331U 98067QG 21063.49289477 .00041171 00000-0 36738-3 0 9991
2 44331 51.6330 102.8212 0003638 280.3963 79.6623 15.67990972 97635
Prox-1
1 44339U 19036A 21063.25556844 .00001284 00000-0 25297-3 0 9996
2 44339 23.9998 276.6725 0010666 112.4441 247.7181 14.53402245 89889
Oculus-ASR
1 44348U 19036K 21063.43064406 .00021357 00000-0 30099-3 0 9993
2 44348 28.5148 111.1316 0342775 212.7020 145.1913 15.08745485 93013
Armadillo
1 44352U 19036P 21063.41306348 .00032840 00000-0 44294-3 0 9991
2 44352 28.5311 96.9439 0318958 234.3086 122.7426 15.14491583 93108
NO-104
1 44354U 19036R 21063.49378926 .00022995 00000-0 31727-3 0 9999
2 44354 28.5305 105.3001 0338350 220.4332 137.0649 15.10097638 93072
NO-103
1 44355U 19036S 21063.33842461 .00049047 00000-0 59263-3 0 9995
2 44355 28.5298 76.4365 0291543 267.3925 89.3269 15.22214498 93351
CP9
1 44360U 19036X 21063.58219558 .00109273 -37160-5 95198-3 0 9991
2 44360 28.5101 31.5468 0238620 341.9404 17.2837 15.38928931 93682
Move-IIb
1 44398U 19038N 21063.78134649 .00002287 00000-0 13171-3 0 9998
2 44398 97.5700 28.3643 0023620 314.0934 45.8354 15.13228497 91934
SONATE
1 44400U 19038Q 21063.58461250 .00000798 00000-0 49609-4 0 9992
2 44400 97.5742 28.1129 0024024 313.7021 46.2214 15.12354338 91880
BeeSat 9
1 44412U 19038AC 21063.32347168 .00002046 00000-0 11927-3 0 9997
2 44412 97.5754 28.0571 0021292 319.9633 40.0027 15.12958021 91554
JAISAT-1
1 44419U 19038F 21063.32684554 .00002027 00000-0 11667-3 0 9997
2 44419 97.5758 28.5245 0020115 318.4685 41.5017 15.13442215 91898
LightSail-2
1 44420U 19036AC 21063.64119248 .00009460 00000-0 19350-2 0 9999
2 44420 24.0079 260.0643 0009918 137.9673 222.1581 14.58845778 88286
Taurus 1
1 44530U 19059C 21063.68657733 .00000836 00000-0 24747-3 0 9991
2 44530 98.5535 153.1587 0015565 102.0146 258.2795 14.45925260 77942
Duchifat 3
1 44854U 19089C 21063.24539980 .00000776 00000-0 68663-4 0 9997
2 44854 36.9694 2.7487 0008681 358.5612 1.5117 14.99355000 67302
OPS-SAT
1 44878U 19092F 21063.46659249 .00002442 00000-0 12965-3 0 9997
2 44878 97.4720 248.5176 0014168 168.4386 191.7175 15.16197823 66928
TO-108
1 44881U 19093C 21063.64059018 .00000077 00000-0 16706-4 0 9990
2 44881 97.9326 143.5777 0013506 273.9274 86.0401 14.81426169 65211
FloripaSat 1
1 44885U 19093G 21063.71942000 .00000385 00000-0 55000-4 0 9996
2 44885 97.9329 144.0900 0013201 282.4830 77.4915 14.82213784 65253
RS-44
1 44909U 19096E 21063.31526229 .00000038 00000-0 11060-3 0 9995
2 44909 82.5249 182.6594 0216882 339.2052 20.0324 12.79708651 55393
SwampSat-2
1 45115U 19071E 21063.78570783 .00039320 00000-0 81644-3 0 9994
2 45115 51.6371 174.0782 0009574 282.9406 77.0511 15.45248116 61214
HO-107
1 45119U 19071J 21063.43397695 .00004583 00000-0 14365-3 0 9998
2 45119 51.6410 185.8319 0011109 270.6738 89.2971 15.35025574 61032
Phoenix
1 45258U 98067RB 21063.46198191 .00011994 00000-0 18558-3 0 9999
2 45258 51.6398 133.4714 0005036 225.0248 135.0335 15.54502596 58867
AztechSat-1
1 45261U 98067RE 21063.46066246 .00029846 00000-0 37331-3 0 9993
2 45261 51.6378 128.2210 0005642 252.8309 107.2067 15.59535812 58967
QARMAN
1 45263U 98067RG 21063.69425138 .00020201 00000-0 27630-3 0 9996
2 45263 51.6387 129.7824 0005543 246.1845 113.8566 15.57397002 58992
Quetzal 1
1 45598U 98067RL 21063.23926797 .00020006 00000-0 28889-3 0 9994
2 45598 51.6399 135.0053 0002649 337.9096 22.1781 15.55944503 48151
BY70-2
1 45857U 20042B 21063.76629455 .00001268 00000-0 18818-3 0 9999
2 45857 97.9915 140.5972 0011853 182.5919 177.5239 14.76733331 36092
UPMSat 2
1 46276U 20061E 21063.36501105 .00000937 00000-0 51747-4 0 9994
2 46276 97.4422 139.2197 0002254 53.5694 306.5747 15.16305230 27616
AmicalSat
1 46287U 20061R 21063.16954917 .00001127 00000-0 72696-4 0 9995
2 46287 97.4976 138.7112 0004362 97.1822 262.9904 15.10265462 27450
SALSAT
1 46495U 20068K 21063.56759615 .00001366 00000-0 10475-3 0 9996
2 46495 97.6846 1.7438 0018011 67.3268 292.9859 15.03366251 23579
BY70-3
1 46839U 20079N 21063.83937764 .00003941 00000-0 12625-3 0 9993
2 46839 97.2508 139.7805 0006390 207.7725 260.5684 15.32938485 18170
SPOC
1 46921U 98067RR 21063.46768787 .00011885 00000-0 19899-3 0 9999
2 46921 51.6419 138.7807 0002563 44.6506 315.4690 15.52314310 18546
Bobcat-1
1 46922U 98067RS 21063.24566933 .00016526 00000-0 26600-3 0 9990
2 46922 51.6420 139.5534 0002258 42.6303 317.4862 15.53102405 18475
Neutron-1
1 46923U 98067RT 21063.47513717 .00012233 00000-0 20541-3 0 9997
2 46923 51.6419 138.8291 0002444 57.3343 302.7883 15.52203069 18578
CAPE 3
1 47309U 21002A 21063.43657944 .00001787 00000-0 93093-4 0 9993
2 47309 60.6886 324.4596 0022990 337.1587 22.8474 15.20414115 6915
OBJECT B
1 47310U 21002B 21063.82032442 .00002874 00000-0 14063-3 0 9995
2 47310 60.6850 322.9227 0021652 337.6284 22.3856 15.20821605 6965
AO-109
1 47311U 21002C 21063.27791731 .00001693 00000-0 86799-4 0 9992
2 47311 60.6853 324.8087 0019007 336.1786 23.8418 15.21305549 6860
OBJECT D
1 47312U 21002D 21063.40229971 .00011917 00000-0 52871-3 0 9993
2 47312 60.6866 324.2813 0018884 339.5324 20.5004 15.21851139 6870
OBJECT E
1 47313U 21002E 21063.45866709 .00004728 00000-0 21655-3 0 9993
2 47313 60.6865 323.9796 0019508 327.1478 32.8395 15.21940520 6897
MiTEE 1
1 47314U 21002F 21063.44098058 .00003567 00000-0 16376-3 0 9991
2 47314 60.6874 323.8934 0016916 322.1493 37.8403 15.22516290 6915
OBJECT G
1 47315U 21002G 21063.43123298 .00001948 00000-0 94127-4 0 9998
2 47315 60.6863 323.8435 0014823 321.2912 38.7112 15.22790166 6914
OBJECT J
1 47317U 21002J 21063.10565732 .00001358 00000-0 73589-4 0 9991
2 47317 60.6872 325.6756 0022742 335.7539 24.2475 15.20475017 6832
OBJECT K
1 47318U 21002K 21063.43354690 .00001365 00000-0 73845-4 0 9990
2 47318 60.6867 324.4419 0022764 335.6681 24.3328 15.20504924 6884
ExoCube 2
1 47319U 21002L 21063.42007390 .00001490 00000-0 78579-4 0 9990
2 47319 60.6844 324.3698 0020558 336.3139 23.6998 15.20944131 6853
OBJECT M
1 47320U 21002M 21063.14814522 .00002213 00000-0 10983-3 0 9992
2 47320 60.6849 325.3041 0019650 335.0811 24.9324 15.21264255 6891
OBJECT N
1 47345U 21002N 21063.45863044 .00004521 00000-0 20761-3 0 9995
2 47345 60.6864 323.9798 0019487 327.1703 32.8171 15.21939620 6633
UVSQ-SAT
1 47438U 21006AB 21063.42561466 .00001404 00000-0 83288-4 0 9993
2 47438 97.5013 126.4729 0014426 100.2101 260.0757 15.12892717 6170
YUSAT 1
1 47439U 21006AC 21063.42637787 .00001431 00000-0 84900-4 0 9996
2 47439 97.5015 126.4727 0014301 100.4092 259.8751 15.12863129 6179
SOMP 2b
1 47445U 21006AJ 21063.42935025 .00001353 00000-0 80752-4 0 9993
2 47445 97.4985 126.4502 0014048 103.4513 256.8285 15.12745065 6178
IDEASSat
1 47458U 21006AX 21063.43278228 .00001342 00000-0 80424-4 0 9997
2 47458 97.5075 126.4983 0013218 101.9093 258.3621 15.12609343 6179
